Starlink 30402

operational
NORAD ID: 57827 Int'l Des: 2023-138 Owner: SPXS Country: US Constellation: starlink
LEOCIRCULAR

About Starlink 30402

Description loading...

Live Position

Loading 3D Globe...

Upcoming Passes

Altitude History

Altitude vs Time

uPlot chart will show altitude changes over time

Two-Line Element Set

1 57827U 23138V 25353.28016459 .00000321 00000-0 38865-4 0 9999
2 57827 43.0044 312.7103 0001106 264.9063 95.1653 15.02534397126615
Epoch: Dec 19, 2025 • Age: 20 hours

Current Status

Altitude 562.3 km
Velocity 7.59 km/s
Sub-Earth Point 40.20°N, 60.26°W
Launch Date Sep 9, 2023
Age 2.2 years
Type internet

Technical Details

Classification Payload
Mass 730.00 kg
Dry Mass 700.00 kg
Total Mass 730.00 kg
Length 0.30 m
Diameter 4.10 m
Span 29.00 m
Shape Box + pan
Manufacturer SPXS
Bus Type Starlink V2M
Phase Status In Orbit
Owner/State SPXS/US

Large Constellations

Loading constellations...